Location: Spruce Knob
(38.6995°N, 79.5330°W)
Time: 06:17:29
(UTC-05:00)

Transit 2A - All Passes

Search period start: 19 January 2022 00:00
Search period end: 29 January 2022 00:00
Orbit: 591 x 967 km, 66.7° (Epoch: 18 January)

Date Brightness Start Highest point End Pass type
(mag) Time Alt. Az. Time Alt. Az. Time Alt. Az.
19 Jan - 00:09:29 10° W 00:10:39 11° W 00:11:49 10° WSW night (unlit)
19 Jan - 11:19:25 10° SE 11:22:49 16° ESE 11:26:19 10° ENE daylight
19 Jan - 12:59:11 10° SSW 13:05:13 80° WNW 13:11:38 10° NNE daylight
19 Jan - 14:45:35 10° W 14:49:32 17° NW 14:53:33 10° N daylight
19 Jan - 20:06:47 10° N 20:09:46 14° NE 20:12:39 10° ENE visible
19 Jan - 21:48:14 10° NNW 21:54:19 67° ENE 21:59:47 10° SE visible
19 Jan - 23:33:10 10° WNW 23:36:46 17° WSW 23:40:10 10° SW night (unlit)
20 Jan - 12:25:00 10° SSW 12:30:59 74° ESE 12:37:21 10° NNE daylight
20 Jan - 14:10:10 10° W 14:14:55 22° NW 14:19:48 10° N daylight
20 Jan - 19:34:17 10° NNE 19:35:02 10° NNE 19:35:47 10° NE visible
20 Jan - 21:14:06 10° NNW 21:19:58 47° NE 21:25:18 10° SE visible
20 Jan - 22:58:05 10° NW 23:02:49 25° WSW 23:07:11 10° SSW night (unlit)
21 Jan - 11:51:02 10° S 11:56:50 52° ESE 12:02:58 10° NE daylight
21 Jan - 13:35:04 10° WSW 13:40:23 30° NW 13:45:54 10° N daylight
21 Jan - 20:40:03 10° NNW 20:45:33 34° NE 20:50:35 10° ESE visible
21 Jan - 22:23:23 10° NW 22:28:48 37° WSW 22:33:44 10° S night (unlit)
22 Jan - 11:17:20 10° S 11:22:44 36° ESE 11:28:26 10° NE daylight
22 Jan - 13:00:12 10° WSW 13:05:55 40° NW 13:11:54 10° NNE daylight
22 Jan - 20:06:06 10° N 20:11:03 25° NE 20:15:39 10° ESE visible
22 Jan - 21:48:52 10° NW 21:54:42 55° WSW 21:59:58 10° S visible
23 Jan - 10:43:56 10° SSE 10:48:43 25° ESE 10:53:42 10° NE daylight
23 Jan - 12:25:34 10° SW 12:31:33 54° WNW 12:37:49 10° NNE daylight
23 Jan - 14:13:48 10° WNW 14:16:17 12° NW 14:18:48 10° NNW daylight
23 Jan - 19:32:17 10° N 19:36:28 19° NE 19:40:26 10° E visible
23 Jan - 21:14:31 10° NNW 21:20:33 81° WSW 21:25:57 10° SSE visible
24 Jan - 10:11:01 10° SE 10:14:45 17° ESE 10:18:35 10° ENE daylight
24 Jan - 11:51:08 10° SSW 11:57:13 76° WNW 12:03:39 10° NNE daylight
24 Jan - 13:37:48 10° WNW 13:41:36 16° NW 13:45:27 10° N daylight
24 Jan - 18:58:42 10° N 19:01:50 14° NE 19:04:50 10° ENE visible
24 Jan - 20:40:16 10° NNW 20:46:18 71° ENE 20:51:43 10° SE visible
24 Jan - 22:25:27 10° WNW 22:28:40 15° WSW 22:31:44 10° SW visible
25 Jan - 09:39:23 10° ESE 09:40:50 11° E 09:42:18 10° E daylight
25 Jan - 11:16:55 10° SSW 11:22:59 79° ESE 11:29:23 10° NNE daylight
25 Jan - 13:02:19 10° W 13:06:58 21° NW 13:11:44 10° N daylight
25 Jan - 18:25:51 10° NNE 18:27:06 11° NE 18:28:21 10° NE visible
25 Jan - 20:06:07 10° NNW 20:11:58 50° NE 20:17:15 10° SE visible
25 Jan - 21:50:15 10° NW 21:54:43 23° WSW 21:58:53 10° SSW visible
26 Jan - 10:42:55 10° S 10:48:49 55° ESE 10:55:02 10° NE daylight
26 Jan - 12:27:10 10° WSW 12:32:25 28° NW 12:37:52 10° N daylight
26 Jan - 19:32:03 10° NNW 19:37:33 35° NE 19:42:35 10° ESE visible
26 Jan - 21:15:29 10° NW 21:20:43 34° WSW 21:25:30 10° S visible
27 Jan - 10:09:09 10° S 10:14:42 38° ESE 10:20:31 10° NE daylight
27 Jan - 11:52:16 10° WSW 11:57:58 38° NW 12:03:52 10° NNE daylight
27 Jan - 18:58:05 10° N 19:03:04 26° NE 19:07:42 10° ESE visible
27 Jan - 20:40:57 10° NW 20:46:39 51° WSW 20:51:47 10° S visible
28 Jan - 09:35:41 10° SSE 09:40:40 27° ESE 09:45:50 10° NE daylight
28 Jan - 11:17:34 10° SW 11:23:34 51° NW 11:29:47 10° NNE daylight
28 Jan - 13:06:11 10° NW 13:08:22 12° NW 13:10:33 10° NNW daylight
28 Jan - 18:24:14 10° N 18:28:30 20° NE 18:32:31 10° E visible
28 Jan - 20:06:33 10° NNW 20:12:30 76° WSW 20:17:49 10° SSE visible
